Flag Weather past 2 weeks in Pointe-à-Pitre, Guadeloupe

Now
86 °F

Scattered clouds.


Feels Like: 92 °F
Forecast: 74 / 84 °F
Wind: 15 mph from East

Location: Le Raizet - Guadeloupe

Current Time: Nov 26, 2014 at 2:50:55 PM

Latest Report: Nov 26, 2014 at 2:17 PM


Visibility: N/A

Pressure: 29.92 "Hg

Humidity: 62%

Dew point: 72 °F

Location of Pointe-à-PitreLocation

Historic Weather in Pointe-à-Pitre — Graph

°F

Pointe-à-Pitre temperature yesterday

Maximum temperature yesterday: 86 °F (at 1:30 PM)
Minimum temperature yesterday: 75 °F (at 8:30 PM)
Average temperature yesterday: 80 °F

Past Weeks' High & Low Weather Summary

 TemperatureHumidityPressure
High88 °F (Nov 12, 11:30 AM)100% (Nov 13, 4:00 AM)30.07 "Hg (Nov 13, 4:00 AM)
Low72 °F (Nov 12, 5:00 AM)55% (Nov 15, 10:30 AM)29.83 "Hg (Nov 11, 2:30 PM)
Average79 °F78%29.95 "Hg
* Reported Nov 11 1:00 PM — Nov 26 1:30 PM, Pointe-à-Pitre, Weather by CustomWeather, © 2014

Note: Actual official high and low records may vary slightly from our data, if they occured in-between our weather recording intervals... More about our weather records

Advertising

Pointe-à-Pitre weather history for previous 24 hours

 ConditionsComfort  
Time TempWeatherWind HumidityBarometerVisibility
1:30 PM
Nov 26
86 °FScattered clouds.15 mph59%29.92 "HgN/A
1:05 PM84 °FScattered clouds.14 mph62%29.95 "HgN/A
12:30 PM84 °FScattered clouds.16 mph66%29.95 "HgN/A
12:00 PM84 °FScattered clouds.12 mph66%29.95 "HgN/A
11:30 AM84 °FScattered clouds.13 mph66%29.98 "HgN/A
11:00 AM84 °FScattered clouds.10 mph66%29.98 "HgN/A
10:30 AM82 °FScattered clouds.14 mph70%30.01 "HgN/A
10:00 AM82 °FScattered clouds.17 mph66%30.01 "HgN/A
9:30 AM84 °FScattered clouds.9 mph70%30.01 "HgN/A
9:00 AM81 °FScattered clouds.8 mph79%30.01 "HgN/A
8:30 AM79 °FScattered clouds.9 mph79%30.01 "Hg4 mi
8:00 AM82 °FScattered clouds.7 mph70%29.98 "HgN/A
7:00 AM77 °FScattered clouds.No wind83%29.95 "HgN/A
6:30 AM77 °FScattered clouds.2 mph79%29.95 "HgN/A
6:00 AM75 °FPassing clouds.2 mph83%29.92 "HgN/A
5:30 AM73 °FPassing clouds.No wind94%29.92 "HgN/A
5:00 AM75 °FPassing clouds.2 mph89%29.92 "HgN/A
4:30 AM75 °FPartly cloudy.3 mph83%29.92 "HgN/A
4:00 AM77 °FPartly cloudy.7 mph79%29.92 "HgN/A
3:30 AM77 °FPassing clouds.8 mph79%29.89 "HgN/A
3:00 AM77 °FPartly cloudy.7 mph83%29.89 "HgN/A
2:30 AM77 °FPassing clouds.10 mph83%29.92 "HgN/A
2:00 AM77 °FPassing clouds.5 mph83%29.92 "HgN/A
1:30 AM77 °FPassing clouds.5 mph79%29.92 "HgN/A
1:00 AM77 °FPassing clouds.8 mph79%29.92 "HgN/A
12:30 AM77 °FPassing clouds.9 mph79%29.95 "HgN/A
12:00 AM77 °FWarm.7 mph83%29.95 "HgN/A
11:30 PM
Nov 25
77 °FPassing clouds.7 mph79%29.98 "HgN/A
11:00 PM77 °FPassing clouds.6 mph83%29.98 "HgN/A
10:30 PM77 °FClear.7 mph83%29.98 "HgN/A
10:00 PM77 °FPartly cloudy.9 mph83%30.01 "HgN/A
9:30 PM77 °FPartly cloudy.6 mph89%29.98 "HgN/A
9:00 PM75 °FMostly cloudy.8 mph89%29.98 "HgN/A
8:30 PM75 °FLight rain. Overcast.12 mph89%29.98 "HgN/A
8:00 PM77 °FPartly cloudy.9 mph83%29.98 "HgN/A
7:00 PM77 °FPassing clouds.8 mph83%29.95 "HgN/A
6:30 PM79 °FPassing clouds.10 mph74%29.95 "HgN/A
6:00 PM79 °FPassing clouds.14 mph74%29.95 "HgN/A
5:30 PM81 °FPassing clouds.16 mph74%29.95 "HgN/A
5:00 PM82 °FScattered clouds.14 mph66%29.95 "HgN/A
4:30 PM82 °FScattered clouds.14 mph66%29.95 "HgN/A
4:00 PM82 °FScattered clouds.16 mph66%29.95 "HgN/A
3:30 PM84 °FScattered clouds.18 mph58%29.95 "HgN/A
3:00 PM84 °FScattered clouds.15 mph62%29.95 "HgN/A
2:30 PM84 °FScattered clouds.16 mph58%29.95 "HgN/A
2:00 PM84 °FScattered clouds.17 mph58%29.95 "HgN/A
Weather by CustomWeather, © 2014

See weather overviewHow to use our weather pages